WL7HC Weather Reports


time (UTC)temp
C
wind
direction
speed
KPH
gust
KPH
rain 1hr
cm
rain 24hr
cm
rain mn
cm
humidity
%
barometer
mb
20260903043057 26 305 0.0 0.0 0.00 0.00 0.00 87 978.0
20260903042551 26 342 0.0 0.0 0.00 0.00 0.00 87 977.9
20260903042047 26 342 0.0 0.0 0.00 0.00 0.00 86 977.8
20260903041544 26 322 0.0 1.6 0.00 0.00 0.00 85 977.7
20260903041038 26 359 1.6 1.6 0.00 0.00 0.00 85 977.9
20260903040537 27 352 0.0 0.0 0.00 0.00 0.00 85 977.9
20260903040034 26 347 3.2 3.2 0.00 0.00 0.00 85 977.7
20260903035529 26 8 1.6 3.2 0.00 0.00 0.00 85 977.8
20260903035025 26 347 0.0 0.0 0.00 0.00 0.00 86 977.9
20260903034525 26 322 1.6 3.2 0.00 0.00 0.00 85 977.5
20260903034020 26 308 0.0 0.0 0.00 0.00 0.00 85 977.4
20260903033515 27 351 0.0 3.2 0.00 0.00 0.00 85 977.3
20260903033011 27 285 0.0 1.6 0.00 0.00 0.00 85 977.3
20260903032506 27 321 0.0 4.8 0.00 0.00 0.00 84 977.6
20260903032001 27 332 0.0 0.0 0.00 0.00 0.00 83 977.3
20260903031500 27 316 0.0 1.6 0.00 0.00 0.00 84 977.2
20260903030956 27 5 0.0 3.2 0.00 0.00 0.00 84 977.3
20260903030452 27 342 0.0 1.6 0.00 0.00 0.00 84 977.3
20260903025947 27 60 3.2 4.8 0.00 0.00 0.00 84 977.4
20260903025443 27 342 0.0 1.6 0.00 0.00 0.00 84 977.3
20260903024938 27 48 3.2 3.2 0.00 0.00 0.00 83 977.2
20260903024437 27 306 0.0 1.6 0.00 0.00 0.00 83 977.2
20260903023932 26 30 1.6 4.8 0.00 0.00 0.00 83 977.1
20260903023428 26 331 0.0 1.6 0.00 0.00 0.00 84 977.0
20260903022923 26 357 0.0 1.6 0.00 0.00 0.00 85 977.1
20260903022422 26 335 0.0 1.6 0.00 0.00 0.00 85 977.4
20260903021920 26 340 0.0 1.6 0.00 0.00 0.00 86 977.7
20260903021416 26 346 0.0 0.0 0.00 0.00 0.00 85 977.7
20260903020911 26 344 0.0 1.6 0.00 0.00 0.00 85 977.9
20260903020407 26 337 0.0 0.0 0.00 0.00 0.00 85 978.0
20260903015907 26 337 0.0 0.0 0.00 0.00 0.00 85 977.8
20260903015402 26 337 0.0 0.0 0.00 0.00 0.00 85 977.7
20260903014858 26 337 0.0 0.0 0.00 0.00 0.00 85 977.7
20260903014357 26 337 0.0 0.0 0.00 0.00 0.00 84 977.8
20260903013852 26 330 0.0 0.0 0.00 0.00 0.00 83 977.8
20260903013352 26 327 0.0 0.0 0.00 0.00 0.00 85 977.8
20260903012851 26 327 0.0 0.0 0.00 0.00 0.00 84 977.7
20260903012350 26 306 0.0 0.0 0.00 0.00 0.00 84 977.6
20260903011849 26 332 0.0 0.0 0.00 0.00 0.00 83 977.7
20260903011344 26 331 0.0 0.0 0.00 0.00 0.00 84 977.6
20260903010840 26 331 0.0 0.0 0.00 0.00 0.00 83 977.6
20260903010335 26 330 0.0 0.0 0.00 0.00 0.00 83 977.5
20260903005833 26 353 0.0 0.0 0.00 0.00 0.00 83 977.6
20260903005328 26 353 0.0 0.0 0.00 0.00 0.00 83 977.4
20260903004824 26 3 0.0 0.0 0.00 0.00 0.00 83 977.5
20260903004320 27 4 0.0 0.0 0.00 0.00 0.00 82 977.3
20260903003815 27 2 0.0 0.0 0.00 0.00 0.00 81 977.2
20260903003310 27 2 0.0 0.0 0.00 0.00 0.00 81 977.1
20260903002810 27 2 0.0 0.0 0.00 0.00 0.00 80 977.0
20260903002309 27 6 0.0 0.0 0.00 0.00 0.00 80 977.1
20260903001804 27 346 0.0 0.0 0.00 0.00 0.00 79 977.1
20260903001259 28 344 0.0 0.0 0.00 0.00 0.00 78 977.2
20260903000754 28 347 0.0 0.0 0.00 0.00 0.00 76 977.1
20260903000249 28 350 0.0 0.0 0.00 0.00 0.00 75 977.1
20260902235747 28 353 0.0 0.0 0.00 0.00 0.00 74 977.3
20260902235243 28 345 0.0 0.0 0.00 0.00 0.00 73 977.2
20260902234742 29 325 0.0 0.0 0.00 0.00 0.00 73 977.1
20260902234242 29 314 0.0 0.0 0.00 0.00 0.00 71 977.1
20260902233742 30 155 0.0 0.0 0.00 0.00 0.00 70 977.3
20260902233236 30 356 0.0 3.2 0.00 0.00 0.00 70 977.1
20260902232734 30 358 0.0 0.0 0.00 0.00 0.00 70 977.2
20260902232235 30 348 0.0 0.0 0.00 0.00 0.00 69 977.1
20260902231734 30 9 0.0 3.2 0.00 0.00 0.00 69 977.2
20260902231229 31 341 0.0 0.0 0.00 0.00 0.00 69 977.3
20260902230724 31 318 0.0 1.6 0.00 0.00 0.00 68 977.2
20260902230223 31 326 0.0 4.8 0.00 0.00 0.00 66 977.1
20260902225718 31 338 0.0 1.6 0.00 0.00 0.00 65 977.1
20260902225218 31 353 1.6 3.2 0.00 0.00 0.00 64 977.3
20260902224717 31 289 0.0 1.6 0.00 0.00 0.00 66 977.1
20260902224212 31 303 0.0 1.6 0.00 0.00 0.00 63 977.2
20260902223708 31 24 3.2 3.2 0.00 0.00 0.00 64 977.1
20260902223208 32 337 0.0 1.6 0.00 0.00 0.00 65 976.9
20260902222707 32 300 3.2 4.8 0.00 0.00 0.00 63 977.2
20260902222201 32 317 3.2 4.8 0.00 0.00 0.00 63 977.2
20260902221655 32 271 1.6 3.2 0.00 0.00 0.00 62 977.2
20260902221154 32 5 1.6 3.2 0.00 0.00 0.00 63 977.2
20260902220651 32 294 4.8 6.4 0.00 0.00 0.00 61 977.2
20260902220151 32 347 1.6 4.8 0.00 0.00 0.00 62 977.3
20260902215647 32 26 0.0 3.2 0.00 0.00 0.00 64 977.5
20260902215142 32 5 3.2 4.8 0.00 0.00 0.00 63 977.3
20260902214637 32 309 6.4 9.7 0.00 0.00 0.00 60 977.2
20260902214136 32 241 1.6 4.8 0.00 0.00 0.00 61 977.3
20260902213632 32 332 0.0 3.2 0.00 0.00 0.00 60 977.2
20260902213131 32 308 3.2 4.8 0.00 0.00 0.00 59 977.4
20260902212626 32 232 0.0 3.2 0.00 0.00 0.00 59 977.3
20260902212122 32 354 3.2 3.2 0.00 0.00 0.00 60 977.5
20260902211619 32 279 1.6 4.8 0.00 0.00 0.00 59 977.6
20260902211114 32 243 0.0 3.2 0.00 0.00 0.00 62 977.6
20260902210613 32 162 1.6 6.4 0.00 0.00 0.00 63 977.6
20260902210108 32 39 3.2 6.4 0.00 0.00 0.00 60 977.5
20260902205607 32 307 0.0 1.6 0.00 0.00 0.00 62 977.5
20260902205103 32 4 3.2 6.4 0.00 0.00 0.00 59 977.9
20260902204602 33 313 0.0 1.6 0.00 0.00 0.00 64 977.6
20260902204057 33 27 1.6 3.2 0.00 0.00 0.00 60 977.8
20260902203553 33 329 0.0 0.0 0.00 0.00 0.00 61 977.8
20260902203052 33 270 0.0 6.4 0.00 0.00 0.00 61 978.0
20260902202548 33 352 0.0 4.8 0.00 0.00 0.00 58 977.9
20260902202044 33 354 4.8 4.8 0.00 0.00 0.00 57 978.0
20260902201540 33 13 3.2 4.8 0.00 0.00 0.00 58 977.9
20260902201038 33 297 1.6 1.6 0.00 0.00 0.00 60 978.2
20260902200534 33 238 0.0 3.2 0.00 0.00 0.00 59 978.2
20260902200030 32 340 0.0 0.0 0.00 0.00 0.00 61 978.4
20260902195526 33 332 0.0 4.8 0.00 0.00 0.00 59 978.4
20260902195025 33 292 0.0 4.8 0.00 0.00 0.00 57 978.3
20260902194524 33 202 1.6 6.4 0.00 0.00 0.00 59 978.5
20260902194020 33 296 1.6 6.4 0.00 0.00 0.00 60 978.5
20260902193516 33 13 1.6 6.4 0.00 0.00 0.00 56 978.5
20260902193015 34 336 0.0 6.4 0.00 0.00 0.00 57 978.6
20260902192513 34 190 0.0 9.7 0.00 0.00 0.00 59 978.4
20260902192012 33 125 1.6 6.4 0.00 0.00 0.00 58 978.7
20260902191508 33 357 3.2 6.4 0.00 0.00 0.00 58 978.8
20260902191003 34 282 1.6 3.2 0.00 0.00 0.00 60 978.7
20260902190458 35 133 0.0 3.2 0.00 0.00 0.00 59 978.6
20260902185953 34 254 1.6 3.2 0.00 0.00 0.00 57 978.7
20260902185449 33 350 1.6 3.2 0.00 0.00 0.00 60 978.8
20260902184944 33 189 3.2 4.8 0.00 0.00 0.00 57 978.6
20260902184439 33 21 1.6 3.2 0.00 0.00 0.00 57 978.6
20260902183935 33 329 3.2 4.8 0.00 0.00 0.00 55 978.8
20260902183431 33 27 1.6 4.8 0.00 0.00 0.00 53 978.8
20260902182927 33 36 3.2 4.8 0.00 0.00 0.00 56 978.9
20260902182423 33 31 4.8 6.4 0.00 0.00 0.00 56 979.0
20260902181919 34 346 6.4 12.9 0.00 0.00 0.00 55 979.0
20260902181415 33 254 0.0 1.6 0.00 0.00 0.00 62 979.0
20260902180909 33 47 1.6 4.8 0.00 0.00 0.00 61 979.0
20260902180404 33 19 1.6 4.8 0.00 0.00 0.00 60 979.3
20260902175859 33 8 1.6 4.8 0.00 0.00 0.00 60 979.1
20260902175354 33 210 1.6 4.8 0.00 0.00 0.00 61 979.1
20260902174850 33 220 3.2 3.2 0.00 0.00 0.00 60 979.2
20260902174347 33 5 4.8 6.4 0.00 0.00 0.00 57 979.3
20260902173843 33 19 0.0 3.2 0.00 0.00 0.00 58 979.3
20260902173342 33 26 1.6 3.2 0.00 0.00 0.00 63 979.3
20260902172836 33 5 0.0 3.2 0.00 0.00 0.00 64 979.4
20260902172336 33 52 3.2 6.4 0.00 0.00 0.00 60 979.3
20260902171831 33 348 3.2 11.3 0.00 0.00 0.00 59 979.6
20260902171327 33 300 1.6 3.2 0.00 0.00 0.00 60 979.4
20260902170823 33 7 3.2 4.8 0.00 0.00 0.00 63 979.6
20260902170318 32 239 6.4 6.4 0.00 0.00 0.00 61 979.6
20260902165814 33 315 6.4 9.7 0.00 0.00 0.00 60 979.7
20260902165313 33 119 3.2 3.2 0.00 0.00 0.00 62 979.6
20260902164808 32 310 0.0 1.6 0.00 0.00 0.00 63 979.7
20260902164303 32 238 1.6 9.7 0.00 0.00 0.00 62 979.7
20260902163757 32 10 3.2 9.7 0.00 0.00 0.00 66 979.7
20260902163257 32 305 6.4 9.7 0.00 0.00 0.00 61 979.8
20260902162755 32 278 0.0 6.4 0.00 0.00 0.00 64 979.8
20260902162251 32 6 1.6 3.2 0.00 0.00 0.00 67 979.7
20260902161750 31 253 0.0 6.4 0.00 0.00 0.00 65 979.9
20260902161246 31 258 3.2 6.4 0.00 0.00 0.00 64 979.8
20260902160743 31 357 1.6 6.4 0.00 0.00 0.00 66 979.7
20260902160243 31 304 6.4 9.7 0.00 0.00 0.00 64 979.8
20260902155741 31 31 1.6 1.6 0.00 0.00 0.00 70 979.8
20260902155239 31 41 3.2 4.8 0.00 0.00 0.00 65 979.9
20260902154735 31 72 0.0 9.7 0.00 0.00 0.00 68 979.8
20260902154231 31 262 3.2 4.8 0.00 0.00 0.00 67 980.0
20260902153729 31 28 0.0 3.2 0.00 0.00 0.00 69 980.0
20260902153229 31 353 1.6 3.2 0.00 0.00 0.00 68 979.8
20260902152725 30 3 1.6 3.2 0.00 0.00 0.00 69 980.0
20260902152221 30 299 0.0 1.6 0.00 0.00 0.00 69 979.9
20260902151716 30 248 1.6 4.8 0.00 0.00 0.00 71 980.1
20260902151211 30 262 1.6 3.2 0.00 0.00 0.00 71 979.9
20260902150706 29 258 0.0 3.2 0.00 0.00 0.00 74 979.9
20260902150203 30 163 1.6 4.8 0.00 0.00 0.00 74 980.1
20260902145701 30 142 1.6 4.8 0.00 0.00 0.00 72 979.8
20260902145201 30 235 0.0 3.2 0.00 0.00 0.00 74 980.0
20260902144658 29 183 0.0 1.6 0.00 0.00 0.00 75 979.9
20260902144153 29 268 0.0 1.6 0.00 0.00 0.00 75 980.0
20260902143653 29 146 1.6 3.2 0.00 0.00 0.00 76 979.8
20260902143149 29 254 0.0 1.6 0.00 0.00 0.00 76 979.9
20260902142644 28 171 0.0 3.2 0.00 0.00 0.00 77 979.7
20260902142140 28 251 0.0 1.6 0.00 0.00 0.00 79 979.8
20260902141639 28 250 0.0 3.2 0.00 0.00 0.00 78 979.8
20260902141135 27 190 0.0 4.8 0.00 0.00 0.00 80 979.8
20260902140630 27 312 0.0 1.6 0.00 0.00 0.00 81 979.6
20260902140125 27 218 0.0 1.6 0.00 0.00 0.00 81 979.5
20260902135625 27 202 1.6 3.2 0.00 0.00 0.00 81 979.6
20260902135120 27 68 0.0 3.2 0.00 0.00 0.00 82 979.7
20260902134616 27 236 0.0 1.6 0.00 0.00 0.00 84 979.6
20260902134115 26 214 0.0 1.6 0.00 0.00 0.00 85 979.5
20260902133616 26 354 1.6 1.6 0.00 0.00 0.00 86 979.7
20260902133110 26 243 0.0 0.0 0.00 0.00 0.00 88 979.7
20260902132606 26 250 0.0 0.0 0.00 0.00 0.00 88 979.8
20260902132101 26 330 0.0 0.0 0.00 0.00 0.00 89 979.7
20260902131557 25 342 0.0 3.2 0.00 0.00 0.00 88 979.7
20260902131057 25 338 0.0 0.0 0.00 0.00 0.00 91 979.9
20260902130553 25 338 0.0 0.0 0.00 0.00 0.00 91 979.8
20260902130048 25 338 0.0 0.0 0.00 0.00 0.00 91 979.6
20260902125544 24 338 1.6 1.6 0.00 0.00 0.00 92 979.8
20260902125040 24 242 0.0 0.0 0.00 0.00 0.00 93 979.7
20260902124537 23 242 0.0 0.0 0.00 0.00 0.00 94 979.5
20260902124036 23 179 0.0 0.0 0.00 0.00 0.00 96 979.6
20260902123532 23 179 0.0 1.6 0.00 0.00 0.00 97 979.6
20260902123032 23 315 0.0 0.0 0.00 0.00 0.00 97 979.5
20260902122531 23 349 0.0 0.0 0.00 0.00 0.00 98 979.5
20260902122027 22 336 0.0 0.0 0.00 0.00 0.00 98 979.6
20260902121527 22 342 0.0 0.0 0.00 0.00 0.00 98 979.6
20260902121023 22 344 0.0 0.0 0.00 0.00 0.00 98 979.6
20260902120519 22 344 0.0 0.0 0.00 0.00 0.00 98 979.5
20260902120015 22 344 0.0 0.0 0.00 0.00 0.00 98 979.7
20260902115510 22 344 0.0 0.0 0.00 0.00 0.00 97 979.7
20260902115007 22 344 0.0 0.0 0.00 0.00 0.00 97 979.7
20260902114501 22 344 0.0 0.0 0.00 0.00 0.00 97 979.6
20260902113956 22 351 0.0 0.0 0.00 0.00 0.00 96 979.4
20260902113452 22 354 0.0 0.0 0.00 0.00 0.00 96 979.6
20260902112951 22 6 0.0 0.0 0.00 0.00 0.00 95 979.5
20260902112448 22 6 0.0 0.0 0.00 0.00 0.00 95 979.6
20260902111944 22 6 0.0 0.0 0.00 0.00 0.00 94 979.5
20260902111440 23 6 0.0 0.0 0.00 0.00 0.00 94 979.5
20260902110936 23 20 0.0 0.0 0.00 0.00 0.00 94 979.8
20260902110431 23 280 0.0 0.0 0.00 0.00 0.00 95 979.7
20260902105931 22 4 0.0 0.0 0.00 0.00 0.00 95 979.7
20260902105427 22 327 0.0 0.0 0.00 0.00 0.00 95 979.7
20260902104921 22 280 0.0 0.0 0.00 0.00 0.00 96 979.7
20260902104417 22 315 0.0 0.0 0.00 0.00 0.00 96 979.6
20260902103916 23 293 0.0 0.0 0.00 0.00 0.00 96 979.6
20260902103412 23 311 0.0 0.0 0.00 0.00 0.00 95 979.6
20260902102907 23 336 0.0 0.0 0.00 0.00 0.00 96 979.7
20260902102404 23 339 0.0 1.6 0.00 0.00 0.00 96 979.8
20260902101900 23 306 0.0 0.0 0.00 0.00 0.00 97 979.7
20260902101355 23 354 0.0 0.0 0.00 0.00 0.00 97 979.5
20260902100854 23 342 0.0 1.6 0.00 0.00 0.00 97 979.6
20260902100354 23 328 0.0 0.0 0.00 0.00 0.00 97 979.6
20260902095849 23 342 0.0 0.0 0.00 0.00 0.00 97 979.3
20260902095343 23 344 0.0 0.0 0.00 0.00 0.00 97 979.6
20260902094843 23 345 0.0 0.0 0.00 0.00 0.00 97 979.6
20260902094339 23 345 0.0 0.0 0.00 0.00 0.00 97 979.2
20260902093838 23 346 0.0 0.0 0.00 0.00 0.00 97 979.4
20260902093334 23 346 0.0 0.0 0.00 0.00 0.00 97 979.4
20260902092832 23 346 0.0 0.0 0.00 0.00 0.00 97 979.3
20260902092329 23 346 0.0 0.0 0.00 0.00 0.00 97 979.3
20260902091828 23 347 0.0 0.0 0.00 0.00 0.00 96 979.3
20260902091324 23 347 0.0 0.0 0.00 0.00 0.00 96 979.2
20260902090821 23 346 0.0 0.0 0.00 0.00 0.00 96 978.9
20260902090320 23 347 0.0 0.0 0.00 0.00 0.00 96 979.3
20260902085819 23 347 0.0 0.0 0.00 0.00 0.00 96 978.9
20260902085315 23 347 0.0 0.0 0.00 0.00 0.00 96 979.0
20260902084810 23 340 0.0 0.0 0.00 0.00 0.00 96 979.2
20260902084307 23 345 0.0 0.0 0.00 0.00 0.00 96 979.1
20260902083802 23 348 0.0 0.0 0.00 0.00 0.00 96 979.1
20260902083301 23 329 0.0 1.6 0.00 0.00 0.00 96 979.1
20260902082756 23 332 0.0 0.0 0.00 0.00 0.00 96 979.0
20260902082253 23 25 0.0 1.6 0.00 0.00 0.00 96 979.2
20260902081749 23 15 0.0 0.0 0.00 0.00 0.00 96 978.9
20260902081244 23 15 0.0 1.6 0.00 0.00 0.00 97 979.1
20260902080739 23 328 0.0 0.0 0.00 0.00 0.00 97 978.8
20260902080236 23 17 0.0 0.0 0.00 0.00 0.00 97 978.8
20260902075736 24 0 0.0 0.0 0.00 0.00 0.00 97 979.0
20260902075232 23 358 0.0 1.6 0.00 0.00 0.00 97 979.0
20260902074731 23 338 0.0 1.6 0.00 0.00 0.00 97 978.9
20260902074227 23 200 1.6 1.6 0.00 0.00 0.00 98 979.0
20260902073722 23 1 0.0 0.0 0.00 0.00 0.00 98 978.9
20260902073218 23 238 0.0 3.2 0.00 0.00 0.00 99 979.0
20260902072714 23 246 0.0 1.6 0.00 0.00 0.00 99 979.0
20260902072210 23 351 0.0 1.6 0.00 0.00 0.00 99 978.9
20260902071706 23 348 0.0 1.6 0.00 0.00 0.00 99 979.0
20260902071201 23 342 0.0 0.0 0.00 0.00 0.00 99 978.8
20260902070658 23 330 0.0 1.6 0.00 0.00 0.00 99 978.9
20260902070157 23 330 0.0 1.6 0.00 0.00 0.00 99 978.9
20260902065655 23 339 0.0 0.0 0.00 0.00 0.00 99 978.8
20260902065151 23 335 0.0 1.6 0.00 0.00 0.00 99 978.9
20260902064647 23 340 0.0 1.6 0.00 0.00 0.00 99 978.9
20260902064142 23 355 0.0 0.0 0.00 0.00 0.00 99 979.0
20260902063638 23 335 0.0 0.0 0.00 0.00 0.00 99 978.9
20260902063132 23 331 0.0 0.0 0.00 0.00 0.00 99 978.8
20260902062631 23 330 0.0 0.0 0.00 0.00 0.00 99 978.8
20260902062127 23 329 0.0 0.0 0.00 0.00 0.00 99 978.9
20260902061626 23 5 0.0 0.0 0.00 0.00 0.00 99 978.7
20260902061122 23 305 0.0 0.0 0.00 0.00 0.00 99 979.0
20260902060618 23 297 0.0 0.0 0.00 0.00 0.00 99 978.9
20260902060114 23 318 0.0 0.0 0.00 0.00 0.00 99 979.1
20260902055610 23 330 0.0 0.0 0.00 0.00 0.00 99 979.3
20260902055105 22 330 0.0 0.0 0.00 0.00 0.00 99 979.1
20260902054600 22 294 0.0 0.0 0.00 0.00 0.00 99 979.2
20260902054056 22 291 0.0 0.0 0.00 0.00 0.00 99 979.4
20260902053551 22 246 0.0 0.0 0.00 0.00 0.00 99 979.3
20260902053050 22 246 0.0 0.0 0.00 0.00 0.00 99 979.2
20260902052545 22 246 0.0 0.0 0.00 0.00 0.00 99 979.3
20260902052041 22 246 0.0 0.0 0.00 0.00 0.00 99 979.5
20260902051540 22 246 0.0 0.0 0.00 0.00 0.00 99 979.4
20260902051039 22 246 0.0 0.0 0.00 0.00 0.00 99 979.5
20260902050534 22 259 0.0 0.0 0.00 0.00 0.00 99 979.3
20260902050030 22 292 0.0 0.0 0.00 0.00 0.00 99 979.1
20260902045526 22 314 0.0 0.0 0.00 0.00 0.00 99 979.2
20260902045022 22 314 0.0 0.0 0.00 0.00 0.00 99 979.0
20260902044521 22 314 0.0 0.0 0.00 0.00 0.00 99 979.2
20260902044017 22 314 0.0 0.0 0.00 0.00 0.00 99 979.1
20260902043512 23 315 0.0 0.0 0.00 0.00 0.00 99 979.2